Weather History for Beaumont / Port Arthur, TX

Change the Weather History Date:

Saturday, May 11, 2013

  Actual Average (KBPT) Record (KBPT)
Temperature  
Mean Temperature 75 °F 75 °F  
Max Temperature 84 °F 84 °F 93 °F (1902)
Min Temperature 66 °F 66 °F 49 °F (1981)
Degree Days  
Heating Degree Days 0 0  
Month to date heating degree days 0  
Since 1 July heating degree days 1400  
Cooling Degree Days 10 10  
Month to date cooling degree days 96  
Year to date cooling degree days 323  
Growing Degree Days 25 (Base 50)    
Moisture  
Dew Point 66 °F    
Average Humidity 81    
Maximum Humidity 100    
Minimum Humidity 47    
Precipitation  
Precipitation 0.00 in 0.17 in 3.93 in (2004)
Month to date precipitation 1.86  
Year to date precipitation 17.44  
Snow  
Snow 0.00 in 0.00 in 0.00 in ()
Month to date snowfall 0.0  
Since 1 July snowfall T  
Snow Depth -    
Sea Level Pressure  
Sea Level Pressure 30.01 in    
Wind  
Wind Speed 6 mph (North)    
Max Wind Speed 16 mph    
Max Gust Speed 23 mph    
Visibility 8 miles    
Events Fog , Rain , Thunderstorm    
T = Trace of Precipitation, MM = Missing Value Source: NWS Daily Summary

Daily Weather History Graph

Daily Weather History Graph

Search for Another Location

Airport:

Trip Planner

Search our weather history database for the weather conditions in past years. The results will help you decide how hot, cold, wet, or windy it might be!

Date:

Astronomy

May. 11, 2013 Rise Set
Actual Time 6:25 AM CDT 8:01 PM CDT
Civil Twilight 5:59 AM CDT 8:27 PM CDT
Nautical Twilight 5:28 AM CDT 8:58 PM CDT
Astronomical Twilight 4:56 AM CDT 9:30 PM CDT
Moon 7:36 AM CDT (5/11) 9:39 PM CDT (5/11)
Length of Visible Light 14h 27m
Length of Day
13h 35m
Waxing Crescent, 3% of the Moon is Illuminated
May 11
Waxing Crescent
May 17
First Quarter
May 24
Full
May 31
Last Quarter
Jun 8
New

Hourly Weather History & Observations

Time (CDT) Temp. Heat Index Dew Point Humidity Pressure Visibility Wind Dir Wind Speed Gust Speed Precip Events Conditions
12:15 AM 69.1 °F - 69.1 °F 100% 29.97 in 10.0 mi North 8.1 mph - N/A Thunderstorm Thunderstorm
12:35 AM 68.9 °F - 68.9 °F 100% 30.00 in 7.0 mi NW 15.0 mph 19.6 mph N/A Rain , Thunderstorm Heavy Thunderstorms and Rain
12:55 AM 68.2 °F - 68.2 °F 100% 29.99 in 5.0 mi WNW 16.1 mph 23.0 mph N/A Rain , Thunderstorm Heavy Thunderstorms and Rain
1:15 AM 68.5 °F - 68.5 °F 100% 29.97 in 7.0 mi North - - N/A Rain , Thunderstorm Light Thunderstorms and Rain
1:35 AM 68.4 °F - 68.4 °F 100% 29.96 in 10.0 mi ENE 6.9 mph - N/A Rain , Thunderstorm Light Thunderstorms and Rain
1:55 AM 68.0 °F - 68.0 °F 100% 29.92 in 10.0 mi ENE 5.8 mph - N/A Thunderstorm Scattered Clouds
2:15 AM 68.0 °F - 68.0 °F 100% 29.93 in 10.0 mi North 3.5 mph - N/A   Clear
2:35 AM 67.5 °F - 67.5 °F 100% 29.92 in 10.0 mi North 4.6 mph - N/A   Clear
2:55 AM 66.9 °F - 66.9 °F 100% 29.93 in 7.0 mi Calm Calm - N/A   Clear
3:15 AM 66.6 °F - 66.6 °F 100% 29.92 in 7.0 mi East 4.6 mph - N/A   Clear
3:35 AM 66.4 °F - 66.4 °F 100% 29.95 in 5.0 mi NW 5.8 mph - N/A   Scattered Clouds
3:55 AM 67.5 °F - 67.5 °F 100% 29.97 in 7.0 mi NNW 3.5 mph - N/A   Overcast
4:15 AM 67.5 °F - 67.5 °F 100% 29.98 in 5.0 mi North 5.8 mph - N/A   Overcast
4:35 AM 67.5 °F - 67.5 °F 100% 29.97 in 2.5 mi NNW 4.6 mph - N/A   Overcast
4:55 AM 67.5 °F - 67.5 °F 100% 29.98 in 4.0 mi NW 4.6 mph - N/A   Overcast
5:15 AM 67.5 °F - 67.5 °F 100% 29.98 in 3.0 mi NW 3.5 mph - N/A   Overcast
5:35 AM 67.5 °F - 67.5 °F 100% 29.98 in 2.5 mi NNW 6.9 mph - N/A   Overcast
5:55 AM 67.5 °F - 67.5 °F 100% 29.98 in 2.5 mi NW 4.6 mph - N/A   Overcast
6:15 AM 67.1 °F - 67.1 °F 100% 29.98 in 1.0 mi NNW 3.5 mph - N/A   Overcast
6:35 AM 67.1 °F - 67.1 °F 100% 30.00 in 0.2 mi NNW 3.5 mph - N/A Fog Fog
6:55 AM 67.3 °F - 67.3 °F 100% 30.01 in 0.2 mi NNW 4.6 mph - N/A Fog Fog
7:15 AM 67.5 °F - 67.5 °F 100% 30.02 in 0.5 mi Calm Calm - N/A Fog Fog
7:35 AM 67.3 °F - 67.3 °F 100% 30.02 in 0.5 mi Calm Calm - N/A Fog Fog
7:55 AM 67.5 °F - 67.5 °F 100% 30.03 in 0.8 mi Calm Calm - N/A   Overcast
8:15 AM 67.1 °F - 67.1 °F 100% 30.04 in 4.0 mi Calm Calm - N/A   Overcast
8:35 AM 67.5 °F - 67.5 °F 100% 30.05 in 5.0 mi Calm Calm - N/A   Overcast
8:55 AM 67.5 °F - 67.5 °F 100% 30.03 in 7.0 mi Calm Calm - N/A   Overcast
9:15 AM 68.4 °F - 68.4 °F 100% 30.02 in 10.0 mi North - - N/A   Overcast
9:35 AM 68.9 °F - 68.9 °F 100% 30.02 in 10.0 mi North 3.5 mph - N/A   Overcast
9:55 AM 69.3 °F - 69.3 °F 100% 30.02 in 10.0 mi North - - N/A   Mostly Cloudy
10:15 AM 70.7 °F - 70.7 °F 100% 30.02 in 10.0 mi NNW 8.1 mph - N/A   Scattered Clouds
10:35 AM 70.9 °F - 70.2 °F 98% 30.01 in 10.0 mi North 6.9 mph - N/A   Clear
10:55 AM 72.1 °F - 70.9 °F 96% 30.01 in 10.0 mi North 5.8 mph - N/A   Clear
11:15 AM 73.4 °F - 70.3 °F 90% 30.02 in 10.0 mi North 4.6 mph - N/A   Clear
11:35 AM 75.2 °F - 70.2 °F 84% 30.02 in 10.0 mi NNW 5.8 mph - N/A   Clear
11:55 AM 76.6 °F - 68.4 °F 75% 30.02 in 10.0 mi North 5.8 mph - N/A   Clear
12:15 PM 78.8 °F - 67.8 °F 69% 30.03 in 10.0 mi Calm Calm - N/A   Clear
12:35 PM 79.9 °F - 66.7 °F 64% 30.04 in 10.0 mi NNE 4.6 mph - N/A   Clear
12:55 PM 80.1 °F 82.1 °F 66.0 °F 62% 30.04 in 10.0 mi Calm Calm - N/A   Clear
1:15 PM 81.5 °F 83.9 °F 66.9 °F 61% 30.04 in 10.0 mi SE 8.1 mph - N/A   Mostly Cloudy
1:35 PM 82.6 °F 84.5 °F 65.5 °F 56% 30.04 in 10.0 mi Calm Calm - N/A   Mostly Cloudy
1:55 PM 81.3 °F 83.2 °F 65.5 °F 58% 30.04 in 10.0 mi Calm Calm - N/A   Mostly Cloudy
2:15 PM 80.2 °F 82.8 °F 67.8 °F 66% 30.03 in 10.0 mi SSE 6.9 mph - N/A   Mostly Cloudy
2:35 PM 81.0 °F 83.8 °F 68.0 °F 65% 30.02 in 10.0 mi SE 6.9 mph - N/A   Mostly Cloudy
2:55 PM 80.8 °F 83.1 °F 66.6 °F 62% 30.01 in 10.0 mi Calm Calm - N/A   Overcast
3:15 PM 80.1 °F 82.1 °F 66.0 °F 62% 30.01 in 10.0 mi Calm Calm - N/A   Mostly Cloudy
3:35 PM 81.1 °F 82.9 °F 65.3 °F 58% 30.00 in 10.0 mi Calm Calm - N/A   Mostly Cloudy
3:55 PM 82.0 °F 83.8 °F 65.1 °F 56% 29.99 in 10.0 mi Calm Calm - N/A   Scattered Clouds
4:15 PM 82.2 °F 84.2 °F 65.7 °F 57% 29.99 in 10.0 mi East 3.5 mph - N/A   Mostly Cloudy
4:35 PM 82.4 °F 85.0 °F 67.3 °F 60% 29.99 in 10.0 mi Calm Calm - N/A   Scattered Clouds
4:55 PM 83.7 °F 85.1 °F 64.6 °F 52% 29.98 in 10.0 mi NE 3.5 mph - N/A   Clear
5:15 PM 84.2 °F 84.8 °F 62.2 °F 47% 29.98 in 10.0 mi North 8.1 mph - N/A   Scattered Clouds
5:35 PM 84.2 °F 85.4 °F 63.7 °F 50% 29.98 in 10.0 mi North 8.1 mph - N/A   Mostly Cloudy
5:55 PM 83.5 °F 84.5 °F 62.8 °F 50% 29.98 in 10.0 mi North 10.4 mph 16.1 mph N/A   Scattered Clouds
6:15 PM 82.8 °F 84.0 °F 63.5 °F 52% 29.97 in 10.0 mi North 9.2 mph - N/A   Clear
6:35 PM 82.2 °F 83.3 °F 63.0 °F 52% 29.97 in 10.0 mi North 10.4 mph - N/A   Clear
6:55 PM 81.5 °F 82.8 °F 63.1 °F 54% 29.98 in 10.0 mi North 9.2 mph - N/A   Clear
7:15 PM 80.1 °F 81.6 °F 63.7 °F 57% 29.99 in 10.0 mi North 8.1 mph - N/A   Clear
7:35 PM 78.6 °F - 63.3 °F 59% 30.00 in 10.0 mi North 8.1 mph - N/A   Clear
7:55 PM 77.0 °F - 63.3 °F 63% 30.01 in 10.0 mi North 6.9 mph - N/A   Clear
8:15 PM 75.4 °F - 63.5 °F 66% 30.02 in 10.0 mi North 4.6 mph - N/A   Clear
8:35 PM 74.7 °F - 63.0 °F 67% 30.02 in 10.0 mi North 5.8 mph - N/A   Clear
9:15 PM 73.4 °F - 62.6 °F 69% 30.04 in 10.0 mi North 4.6 mph - N/A   Clear
9:35 PM 72.9 °F - 62.6 °F 70% 30.05 in 10.0 mi North 4.6 mph - N/A   Clear
9:55 PM 72.1 °F - 62.2 °F 71% 30.07 in 10.0 mi North 3.5 mph - N/A   Clear
10:15 PM 71.1 °F - 62.4 °F 74% 30.07 in 10.0 mi NNE 3.5 mph - N/A   Clear
10:35 PM 70.7 °F - 62.6 °F 75% 30.09 in 10.0 mi Calm Calm - N/A   Clear
10:55 PM 69.8 °F - 62.8 °F 78% 30.09 in 10.0 mi NNE 3.5 mph - N/A   Clear
11:15 PM 69.1 °F - 63.0 °F 81% 30.10 in 10.0 mi Calm Calm - N/A   Clear
11:35 PM 68.9 °F - 62.8 °F 81% 30.10 in 10.0 mi NNE 3.5 mph - N/A   Clear
11:55 PM 68.9 °F - 63.0 °F 81% 30.10 in 10.0 mi North - - N/A   Clear